N5COP-13 Weather Reports


time (UTC)temp
F
wind
direction
speed
knots
gust
knots
rain 1hr
in
rain 24hr
in
rain mn
in
humidity
%
barometer
mb
20260510204831 52 69 7.8 12.2 0.00 0.16 0.16 97 1024.0
20260510204328 52 74 10.4 13.9 0.00 0.16 0.16 97 1024.1
20260510203824 52 77 7.8 10.4 0.00 0.16 0.16 97 1024.5
20260510203322 51 77 3.5 8.7 0.00 0.16 0.16 97 1024.6
20260510202822 51 70 3.5 7.8 0.00 0.16 0.16 97 1024.7
20260510202318 51 25 5.2 9.6 0.00 0.16 0.16 96 1024.5
20260510201815 51 14 6.1 8.7 0.00 0.16 0.16 96 1024.5
20260510201312 51 20 4.3 9.6 0.00 0.16 0.16 96 1024.8
20260510200809 51 8 7.8 12.2 0.00 0.16 0.16 96 1024.8
20260510200307 51 14 5.2 10.4 0.02 0.16 0.16 96 1024.2
20260510195802 51 46 7.0 11.3 0.02 0.15 0.15 96 1023.8
20260510195259 51 82 7.8 14.8 0.07 0.15 0.15 95 1023.7
20260510194758 51 73 13.9 17.4 0.09 0.15 0.15 93 1023.4
20260510194255 51 89 12.2 15.6 0.12 0.14 0.14 91 1023.7
20260510193746 51 83 10.4 13.9 0.19 0.13 0.13 89 1024.1
20260510193246 51 80 7.0 13.0 0.17 0.12 0.12 88 1024.6
20260510192736 51 81 7.8 8.7 0.14 0.10 0.10 87 1025.0
20260510192232 52 66 1.7 4.3 0.17 0.09 0.09 86 1025.5
20260510191728 52 5 8.7 9.6 0.19 0.07 0.07 86 1025.5
20260510191224 52 341 3.5 7.8 0.21 0.06 0.06 85 1025.5
20260510190722 52 55 6.1 13.0 0.14 0.04 0.04 84 1025.0
20260510190219 53 31 13.0 16.5 0.07 0.02 0.02 83 1024.9
20260510185716 53 37 9.6 16.5 0.07 0.01 0.01 81 1024.9
20260510185215 54 25 13.0 18.2 0.00 0.00 0.00 79 1024.9
20260510184710 54 68 17.4 20.0 0.00 0.00 0.00 79 1025.0
20260510184207 54 81 15.6 19.1 0.00 0.00 0.00 78 1024.5
20260510183702 54 57 12.2 21.7 0.00 0.00 0.00 78 1024.2
20260510183157 55 67 14.8 20.0 0.00 0.00 0.00 78 1023.9
20260510182654 55 73 13.0 20.0 0.00 0.00 0.00 79 1024.1
20260510182149 55 42 16.5 24.3 0.00 0.00 0.00 79 1023.7
20260510181647 56 22 12.2 21.7 0.00 0.00 0.00 79 1023.5
20260510181143 56 57 12.2 17.4 0.00 0.00 0.00 80 1023.4
20260510180639 56 38 7.8 28.7 0.00 0.00 0.00 80 1023.1
20260510180137 56 64 9.6 24.3 0.00 0.00 0.00 81 1023.2
20260510175633 55 39 13.0 22.6 0.00 0.00 0.00 81 1023.0
20260510175128 55 41 13.0 22.6 0.00 0.00 0.00 82 1022.9
20260510174626 55 26 13.0 18.2 0.00 0.00 0.00 82 1022.9
20260510174124 55 18 8.7 23.5 0.00 0.00 0.00 82 1022.9
20260510173619 55 29 19.1 26.1 0.00 0.00 0.00 83 1022.6
20260510173116 55 26 14.8 26.1 0.00 0.00 0.00 84 1022.6
20260510172611 55 30 20.9 25.2 0.00 0.00 0.00 85 1022.2
20260510172108 54 17 21.7 30.4 0.00 0.00 0.00 85 1022.0
20260510171605 54 22 15.6 30.4 0.00 0.00 0.00 86 1022.1
20260510171103 54 48 10.4 20.0 0.00 0.00 0.00 86 1022.5
20260510170559 54 31 11.3 25.2 0.00 0.00 0.00 87 1022.1
20260510170055 53 15 12.2 26.1 0.00 0.00 0.00 88 1022.6
20260510165551 53 36 11.3 22.6 0.00 0.00 0.00 88 1022.5
20260510165047 53 46 16.5 23.5 0.00 0.00 0.00 89 1022.5
20260510164545 53 25 14.8 25.2 0.00 0.00 0.00 89 1022.1
20260510164041 53 37 13.0 22.6 0.00 0.00 0.00 90 1022.3
20260510163536 52 34 10.4 25.2 0.00 0.00 0.00 90 1022.1
20260510163033 52 27 14.8 22.6 0.00 0.00 0.00 91 1022.0
20260510162528 52 27 19.1 24.3 0.00 0.00 0.00 91 1022.0
20260510162025 52 17 14.8 21.7 0.00 0.00 0.00 91 1021.9
20260510161520 52 11 20.9 23.5 0.00 0.00 0.00 91 1021.8
20260510161017 52 28 17.4 31.3 0.00 0.00 0.00 91 1021.9
20260510160509 52 27 14.8 22.6 0.00 0.00 0.00 91 1021.9
20260510160008 52 14 18.2 27.8 0.00 0.00 0.00 91 1021.7
20260510155504 52 29 11.3 24.3 0.00 0.00 0.00 90 1021.7
20260510155000 52 6 15.6 25.2 0.00 0.00 0.00 90 1021.6
20260510154451 52 15 13.0 24.3 0.00 0.00 0.00 90 1021.8
20260510153950 52 10 10.4 21.7 0.00 0.00 0.00 90 1021.7
20260510153447 52 25 14.8 19.1 0.00 0.00 0.00 89 1021.5
20260510152944 53 6 13.9 25.2 0.00 0.00 0.00 89 1021.5
20260510152441 53 15 17.4 22.6 0.00 0.00 0.00 89 1021.3
20260510151937 54 12 18.2 23.5 0.00 0.00 0.00 88 1021.3
20260510151434 54 14 15.6 22.6 0.00 0.00 0.00 88 1020.9
20260510150930 56 23 13.9 20.0 0.00 0.00 0.00 88 1020.7
20260510150426 56 27 13.9 22.6 0.00 0.00 0.00 88 1020.3
20260510145922 56 24 18.2 27.8 0.00 0.00 0.00 88 1020.0
20260510145413 56 40 13.0 18.2 0.00 0.00 0.00 88 1020.1
20260510144910 55 9 11.3 24.3 0.00 0.00 0.00 88 1020.0
20260510144407 56 15 10.4 19.1 0.00 0.00 0.00 88 1020.3
20260510143901 56 23 11.3 19.1 0.00 0.00 0.00 87 1020.2
20260510143357 56 13 14.8 23.5 0.00 0.00 0.00 87 1020.3
20260510142855 56 27 12.2 20.0 0.00 0.00 0.00 86 1020.0
20260510142351 56 31 9.6 25.2 0.00 0.00 0.00 86 1019.8
20260510141848 57 31 16.5 21.7 0.00 0.00 0.00 85 1019.8
20260510141345 57 32 7.8 17.4 0.00 0.00 0.00 84 1019.9
20260510140842 57 28 13.0 18.2 0.00 0.00 0.00 84 1019.7
20260510140338 57 29 16.5 20.9 0.00 0.00 0.00 83 1019.7
20260510135831 57 17 7.8 20.9 0.00 0.00 0.00 83 1019.6
20260510135327 57 30 15.6 20.0 0.00 0.00 0.00 83 1019.6
20260510134825 57 18 13.0 23.5 0.00 0.00 0.00 82 1019.4
20260510134322 57 31 17.4 24.3 0.00 0.00 0.00 82 1019.0
20260510133818 57 13 16.5 22.6 0.00 0.00 0.00 82 1018.7
20260510133314 57 28 12.2 20.9 0.00 0.00 0.00 82 1018.7
20260510132810 57 28 18.2 23.5 0.00 0.00 0.00 82 1018.8
20260510132308 58 0 8.7 23.5 0.00 0.00 0.00 82 1018.5
20260510131805 58 27 13.9 18.2 0.00 0.00 0.00 82 1018.5
20260510131303 58 9 11.3 24.3 0.00 0.00 0.00 82 1018.4
20260510130759 59 9 12.2 20.0 0.00 0.00 0.00 82 1018.1
20260510130256 59 22 10.4 20.9 0.00 0.00 0.00 82 1017.9
20260510125752 59 29 12.2 17.4 0.00 0.00 0.00 82 1017.9
20260510125248 60 33 7.0 16.5 0.00 0.00 0.00 82 1017.5
20260510124745 60 19 13.0 18.2 0.00 0.00 0.00 81 1017.5
20260510124243 60 33 13.0 14.8 0.00 0.00 0.00 81 1017.4
20260510123738 60 23 7.8 14.8 0.00 0.00 0.00 81 1017.1
20260510123234 60 38 12.2 13.9 0.00 0.00 0.00 81 1016.9
20260510122730 60 31 13.9 14.8 0.00 0.00 0.00 80 1016.8
20260510122227 60 69 5.2 17.4 0.00 0.00 0.00 80 1016.4
20260510121723 60 59 7.8 14.8 0.00 0.00 0.00 80 1016.3
20260510121221 60 47 9.6 13.0 0.00 0.00 0.00 80 1016.5
20260510120718 60 28 9.6 14.8 0.00 0.00 0.00 80 1016.3
20260510120214 60 34 7.0 13.0 0.00 0.00 0.00 80 1016.2
20260510115710 61 49 7.0 13.0 0.00 0.00 0.00 80 1016.1
20260510115209 61 23 8.7 14.8 0.00 0.00 0.00 80 1015.9
20260510114703 61 80 12.2 16.5 0.00 0.00 0.00 81 1015.6
20260510114200 61 87 9.6 16.5 0.00 0.00 0.00 82 1015.9
20260510113655 61 71 10.4 16.5 0.00 0.00 0.00 82 1015.5
20260510113152 60 69 17.4 17.4 0.00 0.00 0.00 82 1015.6
20260510112649 60 81 19.1 22.6 0.00 0.00 0.00 82 1015.3
20260510112146 60 86 15.6 23.5 0.00 0.00 0.00 82 1015.1
20260510111636 60 81 19.1 24.3 0.00 0.00 0.00 83 1015.2
20260510111133 60 75 20.9 23.5 0.00 0.00 0.00 83 1015.3
20260510110628 60 79 13.0 19.1 0.00 0.00 0.00 83 1015.3
20260510110125 60 74 7.0 23.5 0.00 0.00 0.00 83 1015.5
20260510105620 60 94 11.3 20.9 0.00 0.00 0.00 83 1015.3
20260510105115 60 57 6.1 13.9 0.00 0.00 0.00 83 1015.3
20260510104613 60 58 6.1 13.0 0.00 0.00 0.00 83 1015.1
20260510104109 60 77 13.9 17.4 0.00 0.00 0.00 83 1014.7
20260510103606 60 77 13.9 18.2 0.00 0.00 0.00 82 1014.6
20260510103102 60 86 7.0 13.0 0.00 0.00 0.00 82 1014.7
20260510102557 60 25 6.1 14.8 0.00 0.00 0.00 82 1015.0
20260510102054 60 69 11.3 13.0 0.00 0.00 0.00 81 1014.7
20260510101552 60 76 4.3 15.6 0.00 0.00 0.00 81 1014.5
20260510101050 60 20 7.0 11.3 0.00 0.00 0.00 81 1014.6
20260510100545 60 35 8.7 12.2 0.00 0.00 0.00 80 1014.2
20260510100043 60 65 9.6 12.2 0.00 0.00 0.00 80 1014.0
20260510095539 60 12 4.3 11.3 0.00 0.00 0.00 79 1014.4
20260510095037 60 12 2.6 8.7 0.00 0.00 0.00 79 1014.0
20260510094532 60 89 8.7 10.4 0.00 0.00 0.00 78 1014.0
20260510094028 61 60 6.1 9.6 0.00 0.00 0.00 78 1014.1
20260510093524 61 69 6.1 10.4 0.00 0.00 0.00 77 1013.5
20260510093021 61 77 7.8 14.8 0.00 0.00 0.00 77 1013.4
20260510092518 61 81 8.7 14.8 0.00 0.00 0.00 77 1013.4
20260510092017 61 78 13.9 15.6 0.00 0.00 0.00 77 1013.3
20260510091515 61 78 10.4 13.9 0.00 0.00 0.00 76 1013.3
20260510091010 62 75 11.3 12.2 0.00 0.00 0.00 76 1013.0
20260510090508 62 65 7.8 12.2 0.00 0.00 0.00 75 1013.2
20260510090003 62 73 7.0 13.0 0.00 0.00 0.00 75 1013.0
20260510085458 63 83 8.7 10.4 0.00 0.00 0.00 75 1013.0
20260510084954 63 91 7.8 12.2 0.00 0.00 0.00 75 1013.0
20260510084451 63 84 8.7 13.0 0.00 0.00 0.00 75 1013.0
20260510083948 63 76 9.6 13.9 0.00 0.00 0.00 76 1013.2
20260510083445 63 80 8.7 9.6 0.00 0.00 0.00 76 1013.4
20260510082940 63 35 1.7 5.2 0.00 0.00 0.00 76 1013.6
20260510082438 63 79 5.2 6.1 0.00 0.00 0.00 75 1013.5
20260510081937 63 89 3.5 8.7 0.00 0.00 0.00 75 1013.2
20260510081433 63 78 6.1 9.6 0.00 0.00 0.00 75 1013.0
20260510080930 64 94 8.7 10.4 0.00 0.00 0.00 74 1013.2
20260510080428 64 95 12.2 16.5 0.00 0.00 0.00 74 1013.0
20260510075925 64 99 12.2 17.4 0.00 0.00 0.00 74 1012.8
20260510075424 65 103 14.8 20.9 0.00 0.00 0.00 74 1012.8
20260510074920 65 96 10.4 19.1 0.00 0.00 0.00 74 1012.3
20260510074417 65 84 10.4 14.8 0.00 0.00 0.00 73 1012.3
20260510073913 65 100 11.3 13.9 0.00 0.00 0.00 73 1012.4
20260510073409 65 94 9.6 15.6 0.00 0.00 0.00 73 1012.2
20260510072905 65 92 12.2 13.0 0.00 0.00 0.00 72 1012.3
20260510072402 66 76 7.8 13.0 0.00 0.00 0.00 72 1012.1
20260510071858 66 81 7.8 13.9 0.00 0.00 0.00 72 1012.0
20260510071354 66 84 11.3 13.9 0.00 0.00 0.00 71 1012.1
20260510070853 66 84 8.7 14.8 0.00 0.00 0.00 71 1012.1
20260510070350 67 51 4.3 9.6 0.00 0.00 0.00 70 1012.2
20260510065850 67 67 6.1 11.3 0.00 0.00 0.00 70 1012.5
20260510065347 67 78 7.8 10.4 0.00 0.00 0.00 69 1012.3
20260510064843 67 24 7.0 10.4 0.00 0.00 0.00 68 1012.7
20260510064342 68 66 7.8 11.3 0.00 0.00 0.00 68 1012.5
20260510063838 68 25 7.0 8.7 0.00 0.00 0.00 66 1012.8
20260510063334 68 15 4.3 10.4 0.00 0.00 0.00 65 1012.5
20260510062831 69 75 14.8 15.6 0.00 0.00 0.00 65 1012.4
20260510062326 69 72 14.8 18.2 0.00 0.00 0.00 63 1012.3
20260510061821 69 75 13.9 19.1 0.00 0.00 0.00 62 1012.1
20260510061319 70 80 13.9 18.2 0.00 0.00 0.00 60 1012.1
20260510060815 70 93 13.0 19.1 0.00 0.00 0.00 58 1012.1
20260510060312 71 79 7.8 12.2 0.00 0.00 0.00 54 1012.2
20260510055809 72 60 4.3 11.3 0.00 0.00 0.00 52 1011.5
20260510055308 73 79 4.3 7.0 0.00 0.00 0.00 50 1011.4
20260510054807 74 109 8.7 9.6 0.00 0.00 0.00 47 1011.3
20260510054303 75 27 7.8 13.9 0.00 0.00 0.00 43 1011.2
20260510053758 75 60 2.6 7.8 0.00 0.00 0.00 37 1011.2
20260510053253 74 260 8.7 20.0 0.00 0.00 0.00 39 1010.8
20260510052750 75 71 10.4 19.1 0.00 0.00 0.00 41 1011.3
20260510052240 74 26 5.2 14.8 0.00 0.00 0.00 37 1011.7
20260510051736 74 338 8.7 13.0 0.00 0.00 0.00 34 1011.6
20260510051233 75 8 3.5 9.6 0.00 0.00 0.00 30 1011.2
20260510050730 76 76 9.6 10.4 0.00 0.00 0.00 26 1011.1
20260510050227 76 84 5.2 8.7 0.00 0.00 0.00 22 1010.8
20260510045724 77 88 7.0 7.8 0.00 0.00 0.00 20 1011.3
20260510045221 79 21 4.3 7.0 0.00 0.00 0.00 18 1011.6
20260510044717 81 11 1.7 2.6 0.00 0.00 0.00 17 1011.3
20260510044216 81 27 2.6 4.3 0.00 0.00 0.00 18 1011.2
20260510043710 80 47 2.6 5.2 0.00 0.00 0.00 17 1011.3
20260510043207 81 13 3.5 3.5 0.00 0.00 0.00 16 1011.1
20260510042704 83 19 4.3 8.7 0.00 0.00 0.00 16 1010.9
20260510042201 84 41 7.8 10.4 0.00 0.00 0.00 16 1011.3
20260510041658 84 64 7.0 11.3 0.00 0.00 0.00 17 1011.1
20260510041155 84 78 6.1 32.2 0.00 0.00 0.00 16 1011.2
20260510040652 84 179 7.8 24.3 0.00 0.00 0.00 16 1011.7
20260510040149 84 250 7.8 7.8 0.00 0.00 0.00 15 1011.5
20260510035644 84 304 0.0 1.7 0.00 0.00 0.00 15 1011.1
20260510035139 85 222 7.0 13.9 0.00 0.00 0.00 15 1010.7
20260510034636 84 133 8.7 20.9 0.00 0.00 0.00 16 1011.1
20260510034133 84 142 16.5 20.0 0.00 0.00 0.00 15 1011.1
20260510033629 82 174 10.4 24.3 0.00 0.00 0.00 16 1010.7
20260510033128 80 97 6.1 8.7 0.00 0.00 0.00 14 1010.6
20260510032623 82 130 5.2 7.8 0.00 0.00 0.00 14 1010.6
20260510032119 82 313 0.9 1.7 0.00 0.00 0.00 14 1010.4
20260510031614 82 25 0.9 3.5 0.00 0.00 0.00 14 1010.6
20260510031111 82 28 2.6 3.5 0.00 0.00 0.00 14 1010.4
20260510030606 82 18 1.7 6.1 0.00 0.00 0.00 15 1010.2
20260510030104 83 359 3.5 12.2 0.00 0.00 0.00 16 1010.2
20260510025600 82 354 9.6 12.2 0.00 0.00 0.00 16 1010.3
20260510025058 79 344 6.1 11.3 0.00 0.00 0.00 17 1010.4
20260510024555 75 339 4.3 6.1 0.00 0.00 0.00 17 1010.3
20260510024050 75 266 6.1 7.8 0.00 0.00 0.00 17 1010.2
20260510023547 75 344 2.6 4.3 0.00 0.00 0.00 16 1009.7
20260510023044 77 283 0.0 0.0 0.00 0.00 0.00 16 1009.4
20260510022544 77 153 1.7 1.7 0.00 0.00 0.00 16 1008.9
20260510022038 77 148 1.7 2.6 0.00 0.00 0.00 16 1008.8
20260510021535 78 138 2.6 4.3 0.00 0.00 0.00 16 1008.7
20260510021032 77 144 2.6 2.6 0.00 0.00 0.00 17 1008.6
20260510020527 76 163 1.7 1.7 0.00 0.00 0.00 17 1008.7
20260510020023 77 166 1.7 1.7 0.00 0.00 0.00 16 1008.5
20260510015518 78 197 1.7 1.7 0.00 0.00 0.00 16 1008.4
20260510015015 78 187 0.0 0.9 0.00 0.00 0.00 15 1008.2
20260510014511 79 211 0.9 0.9 0.00 0.00 0.00 15 1008.4
20260510014009 79 222 0.9 1.7 0.00 0.00 0.00 15 1008.4
20260510013502 80 218 0.9 1.7 0.00 0.00 0.00 15 1008.2
20260510012959 81 265 1.7 1.7 0.00 0.00 0.00 14 1008.2
20260510012453 82 333 0.0 0.9 0.00 0.00 0.00 14 1008.2
20260510011949 83 326 0.0 1.7 0.00 0.00 0.00 13 1008.2
20260510011444 84 325 0.9 1.7 0.00 0.00 0.00 13 1008.0
20260510010940 85 353 1.7 3.5 0.00 0.00 0.00 13 1007.9
20260510010437 87 356 1.7 2.6 0.00 0.00 0.00 12 1007.9
20260510005934 87 340 2.6 3.5 0.00 0.00 0.00 12 1007.9
20260510005430 88 287 5.2 5.2 0.00 0.00 0.00 12 1007.9
20260510004927 88 298 3.5 4.3 0.00 0.00 0.00 12 1007.9
20260510004425 89 304 7.8 11.3 0.00 0.00 0.00 11 1007.7
20260510003923 90 297 5.2 7.8 0.00 0.00 0.00 11 1007.8
20260510003419 90 323 7.0 7.8 0.00 0.00 0.00 11 1007.9
20260510002919 89 326 5.2 9.6 0.00 0.00 0.00 11 1007.7
20260510002416 90 286 8.7 12.2 0.00 0.00 0.00 11 1007.8
20260510001912 90 308 11.3 12.2 0.00 0.00 0.00 10 1007.9
20260510001410 90 301 11.3 13.9 0.00 0.00 0.00 10 1007.9
20260510000907 90 309 5.2 11.3 0.00 0.00 0.00 10 1007.8
20260510000404 91 326 8.7 14.8 0.00 0.00 0.00 9 1007.9
20260509235900 91 350 7.0 13.0 0.00 0.00 0.00 9 1007.9
20260509235357 91 345 8.7 13.0 0.00 0.00 0.00 9 1008.0
20260509234853 91 334 9.6 13.0 0.00 0.00 0.00 9 1008.0
20260509234350 92 283 6.1 7.0 0.00 0.00 0.00 9 1007.9
20260509233848 91 289 3.5 7.0 0.00 0.00 0.00 9 1008.0
20260509233345 91 299 7.0 13.0 0.00 0.00 0.00 9 1008.3
20260509232841 91 276 7.8 10.4 0.00 0.00 0.00 9 1008.2
20260509232339 91 273 12.2 15.6 0.00 0.00 0.00 9 1008.4
20260509231834 91 266 14.8 19.1 0.00 0.00 0.00 9 1008.3
20260509231332 91 289 9.6 14.8 0.00 0.00 0.00 9 1008.4
20260509230829 91 312 14.8 15.6 0.00 0.00 0.00 10 1008.5
20260509230326 91 288 11.3 14.8 0.00 0.00 0.00 10 1008.4
20260509225821 91 304 8.7 14.8 0.00 0.00 0.00 10 1008.5
20260509225319 91 281 8.7 14.8 0.00 0.00 0.00 10 1008.5
20260509224814 91 276 11.3 17.4 0.00 0.00 0.00 10 1008.6
20260509224311 91 309 8.7 13.9 0.00 0.00 0.00 10 1008.6
20260509223807 91 287 10.4 15.6 0.00 0.00 0.00 10 1008.4
20260509223305 90 235 10.4 13.0 0.00 0.00 0.00 11 1008.7
20260509222801 91 241 14.8 18.2 0.00 0.00 0.00 10 1008.6
20260509222257 91 258 9.6 20.0 0.00 0.00 0.00 11 1008.6
20260509221753 91 253 13.0 19.1 0.00 0.00 0.00 10 1008.7
20260509221250 91 258 13.0 14.8 0.00 0.00 0.00 11 1008.7
20260509220745 91 279 7.8 13.0 0.00 0.00 0.00 11 1008.7
20260509220242 91 320 14.8 20.0 0.00 0.00 0.00 10 1008.9
20260509215737 91 287 8.7 16.5 0.00 0.00 0.00 11 1008.7
20260509215234 91 295 11.3 17.4 0.00 0.00 0.00 11 1008.8
20260509214731 91 314 17.4 20.0 0.00 0.00 0.00 11 1009.0
20260509214227 91 295 22.6 24.3 0.00 0.00 0.00 12 1008.8
20260509213719 91 314 13.9 19.1 0.00 0.00 0.00 12 1009.2
20260509213214 91 298 19.1 24.3 0.00 0.00 0.00 12 1009.0
20260509212712 91 301 19.1 21.7 0.00 0.00 0.00 12 1009.2
20260509212209 91 315 15.6 19.1 0.00 0.00 0.00 13 1009.3
20260509211705 91 284 15.6 22.6 0.00 0.00 0.00 13 1009.3
20260509211202 91 295 9.6 19.1 0.00 0.00 0.00 14 1009.3
20260509210658 91 287 18.2 23.5 0.00 0.00 0.00 13 1009.5
20260509210156 91 303 10.4 19.1 0.00 0.00 0.00 13 1009.6
20260509205651 91 318 14.8 20.0 0.00 0.00 0.00 13 1009.5
20260509205150 90 300 17.4 21.7 0.00 0.00 0.00 13 1009.7